Tracking 27107 objects as of 21-Mar-2023
HD Live streaming from Space Station
objects crossing your sky now

EXPLORER 11

Track EXPLORER 11 now!
10-day predictions
EXPLORER 11 is classified as:


NORAD ID: 107
Int'l Code: 1961-013A
Perigee: 473.3 km
Apogee: 1,248.5 km
Inclination: 28.8 °
Period: 102.0 minutes
Semi major axis: 7231 km
RCS: 0.4708 m2 (medium)
Launch date: April 27, 1961
Source: United States (US)
Launch site: AIR FORCE EASTERN TEST RANGE (AFETR)
Your satellite tracking list
Your tracking list is empty




NASA's NSSDC Master Catalog

Two Line Element Set (TLE):
1 00107U 61013A   23079.80423413  .00002454  00000-0  30525-3 0  9998
2 00107  28.7891 251.4590 0535994 314.7632  41.0508 14.11637352108350
Source of the keplerian elements: AFSPC